[[{"header":{"parameterUnit":"m.s-1","parameterCategory":1,"la1":30.2992,"la2":30.254,"lo1":-89.0895,"lo2":-89.0443,"dy":0.0025,"dx":0.0025,"nx":19,"ny":19,"refTime":"2026-03-27T21:00:00:Z","depth":0,"parameterNumber":2,"parameterNumberName":"U-component_of_WINDS"},"data":[0,0,0,-2.2987,-2.2988,-2.3047,-2.3048,-2.313,-2.3131,0,0,0,0,0,0,0,0,0,0,0,-2.2974,-2.2974,-2.2986,-2.2988,-2.3047,-2.3048,-2.313,-2.3131,0,0,0,0,0,0,0,0,0,0,0,-2.2973,-2.2974,-2.2975,-2.2988,-2.3047,-2.3048,-2.313,-2.3083,0,0,0,0,0,0,0,0,0,0,-2.3024,-2.3016,-2.2974,-2.2975,-2.2989,-2.3047,-2.3048,-2.308,-2.3086,-2.3107,0,-2.3127,0,-2.313,-2.3137,-2.3138,0,0,0,-2.2984,-2.3012,-2.3024,-2.2975,-2.2989,-2.3047,-2.302,-2.3083,-2.3089,-2.3114,-2.3128,-2.3131,-2.3132,-2.3138,-2.3138,-2.3272,-2.3273,0,0,-2.2981,-2.2987,-2.302,-2.3028,-2.302,-2.3018,-2.3022,-2.3087,-2.3102,-2.3128,-2.3133,-2.3133,-2.3138,-2.3139,-2.3271,-2.3272,0,0,0,-2.2974,-2.2985,-2.2995,-2.3025,-2.3035,-2.302,-2.3024,-2.31,-2.3102,-2.3133,-2.3134,-2.3139,-2.314,-2.327,-2.3272,-2.3317,0,0,0,-2.2972,-2.298,-2.2993,-2.2997,-2.3034,-2.3068,-2.3035,-2.3098,-2.3105,-2.3134,-2.3139,-2.3141,-2.327,-2.3271,-2.3314,-2.3338,0,0,0,-2.2968,-2.298,-2.299,-2.2998,-2.3023,-2.3067,-2.3074,-2.3099,-2.3106,-2.3138,-2.3141,-2.3269,-2.3271,-2.3311,-2.3334,-2.3376,0,0,0,-2.2965,-2.3029,-2.2991,-2.3062,-2.3023,-2.3095,-2.3073,-2.3126,-2.3159,-2.3139,-2.327,-2.3272,-2.331,-2.3331,-2.3373,-2.3413,-2.343,0,0,-2.3049,-2.304,-2.3081,-2.3049,-2.3129,-2.3085,-2.3171,-2.3196,-2.3193,-2.3246,-2.3249,-2.3315,-2.3333,-2.3375,-2.3522,-2.3536,0,0,0,-2.3109,-2.314,-2.3159,-2.3191,-2.3211,-2.3231,-2.3241,-2.325,-2.3295,-2.3222,-2.3341,-2.3351,-2.3376,-2.3395,-2.3407,-2.3428,-2.328,-2.328,-2.328,-2.3237,-2.323,-2.3299,-2.33,-2.3331,-2.3341,-2.3365,-2.3379,-2.3363,-2.3391,-2.3407,-2.3497,-2.352,-2.3528,-2.355,-2.3427,-2.3427,-2.3427,-2.3427,-2.336,-2.3402,-2.3379,-2.3438,-2.343,-2.3479,-2.3491,-2.3478,-2.3522,-2.3484,-2.3506,-2.3466,-2.3544,-2.3562,-2.3431,-2.343,-2.343,-2.3429,-2.3429,-2.3444,-2.3463,-2.3472,-2.3518,-2.3553,-2.3551,-2.3595,-2.3586,-2.3578,-2.3598,-2.3615,-2.3614,-2.3613,-2.3607,-2.3607,-2.3607,-2.3607,-2.3608,-2.3608,-2.3527,-2.3537,-2.3575,-2.3602,-2.3621,-2.3645,-2.3655,-2.3674,-2.3692,-2.3682,-2.3682,-2.3664,-2.3552,-2.3525,-2.3613,-2.3612,-2.3611,-2.3611,-2.361,-2.3657,-2.3626,-2.3686,-2.3705,-2.3736,-2.3771,-2.3759,-2.3797,-2.3811,-2.3833,-2.381,-2.3728,-2.3717,-2.3708,-2.3686,-2.381,-2.381,-2.381,-2.381,-2.3729,-2.3723,-2.3782,-2.3813,-2.3843,-2.3837,-2.3904,-2.3913,-2.3916,-2.3924,-2.3904,-2.3873,-2.3864,-2.3859,-2.3846,-2.3825,-2.3983,-2.3983,-2.3983,-2.3809,-2.3805,-2.3865,-2.3868,-2.3891,-2.3911,-2.3974,-2.401,-2.4007,-2.399,-2.393,-2.3923,-2.3873,-2.3856,-2.384,-2.382,-2.3781,0,0]},{"header":{"parameterUnit":"m.s-1","parameterCategory":1,"la1":30.2992,"la2":30.254,"lo1":-89.0895,"lo2":-89.0443,"dy":0.0025,"dx":0.0025,"nx":19,"ny":19,"refTime":"2026-03-27T21:00:00:Z","depth":0,"parameterNumber":3,"parameterNumberName":"V-component_of_WINDS"},"data":[0,0,0,-5.4038,-5.4039,-5.4102,-5.4103,-5.4181,-5.4181,0,0,0,0,0,0,0,0,0,0,0,-5.4019,-5.402,-5.4037,-5.4039,-5.4102,-5.4103,-5.4181,-5.4181,0,0,0,0,0,0,0,0,0,0,0,-5.4019,-5.402,-5.402,-5.4039,-5.4102,-5.4103,-5.418,-5.4133,0,0,0,0,0,0,0,0,0,0,-5.4072,-5.4056,-5.4019,-5.402,-5.404,-5.4102,-5.4103,-5.4131,-5.4136,-5.4152,0,-5.4167,0,-5.4176,-5.4187,-5.4187,0,0,0,-5.4038,-5.4051,-5.4069,-5.402,-5.404,-5.4102,-5.4073,-5.4134,-5.414,-5.4159,-5.4169,-5.4171,-5.4177,-5.4187,-5.4188,-5.4288,-5.4288,0,0,-5.4034,-5.403,-5.4065,-5.4072,-5.4065,-5.4071,-5.4075,-5.4137,-5.4147,-5.4169,-5.4173,-5.4179,-5.4188,-5.4188,-5.4287,-5.4288,0,0,0,-5.4025,-5.4027,-5.4043,-5.4069,-5.4081,-5.4073,-5.4078,-5.4144,-5.415,-5.4174,-5.4179,-5.4188,-5.4189,-5.4287,-5.4288,-5.4311,0,0,0,-5.4023,-5.4022,-5.4042,-5.4039,-5.408,-5.4114,-5.4083,-5.4146,-5.4153,-5.4179,-5.4188,-5.419,-5.4286,-5.4287,-5.4309,-5.4322,0,0,0,-5.4015,-5.4021,-5.4031,-5.4039,-5.4067,-5.4113,-5.4122,-5.4147,-5.4156,-5.4187,-5.419,-5.4286,-5.4287,-5.4307,-5.4319,-5.4348,0,0,0,-5.4004,-5.4048,-5.4031,-5.4082,-5.4066,-5.4128,-5.4122,-5.4167,-5.4196,-5.4189,-5.4286,-5.4287,-5.4307,-5.4317,-5.4347,-5.4373,-5.4383,0,0,-5.4057,-5.4054,-5.4085,-5.4072,-5.4136,-5.4118,-5.4185,-5.4214,-5.4219,-5.4264,-5.4267,-5.431,-5.4319,-5.4348,-5.4442,-5.445,0,0,0,-5.41,-5.4122,-5.414,-5.4169,-5.4195,-5.4218,-5.4239,-5.425,-5.4289,-5.4242,-5.4328,-5.4333,-5.4351,-5.4363,-5.437,-5.4386,-5.4293,-5.4293,-5.4293,-5.4166,-5.4175,-5.4226,-5.4243,-5.4271,-5.4294,-5.4317,-5.4336,-5.4332,-5.4352,-5.4366,-5.4422,-5.4437,-5.4442,-5.4458,-5.4379,-5.438,-5.438,-5.438,-5.4245,-5.4278,-5.4277,-5.4326,-5.4334,-5.4375,-5.4398,-5.4395,-5.4433,-5.4412,-5.4427,-5.4404,-5.4451,-5.4465,-5.4382,-5.4381,-5.4381,-5.4381,-5.4381,-5.429,-5.4307,-5.4323,-5.4369,-5.4403,-5.4416,-5.4455,-5.4459,-5.4463,-5.4479,-5.4494,-5.4494,-5.4494,-5.4486,-5.4486,-5.4486,-5.4486,-5.4487,-5.4487,-5.433,-5.4347,-5.4381,-5.4415,-5.4436,-5.4464,-5.4488,-5.4508,-5.4531,-5.4531,-5.4532,-5.4527,-5.4455,-5.4437,-5.449,-5.4489,-5.4489,-5.4489,-5.4488,-5.4407,-5.4392,-5.4443,-5.4465,-5.4506,-5.454,-5.4547,-5.4588,-5.4605,-5.4624,-5.4616,-5.4562,-5.4559,-5.4553,-5.4538,-5.4614,-5.4614,-5.4614,-5.4614,-5.4445,-5.4446,-5.4501,-5.4536,-5.457,-5.4582,-5.4639,-5.4659,-5.4676,-5.4687,-5.4677,-5.4658,-5.4652,-5.4652,-5.4644,-5.463,-5.4728,-5.4728,-5.4729,-5.4494,-5.4498,-5.4547,-5.4567,-5.4601,-5.4629,-5.4683,-5.4721,-5.4737,-5.4733,-5.4696,-5.4692,-5.466,-5.465,-5.4644,-5.4632,-5.4607,0,0]}]]